OneWeb SL0149

operational
NORAD ID: 48058 Int'l Des: 2021-025 Owner: ONEWEBN Country: UK Constellation: oneweb
LEOCIRCULARPOLARONEWEB_TYPE

About OneWeb SL0149

Description loading...

Live Position

Loading 3D Globe...

Upcoming Passes

Altitude History

Altitude vs Time

uPlot chart will show altitude changes over time

Two-Line Element Set

1 48058U 21025S 26034.39093810 .00000369 00000-0 97472-3 0 9993
2 48058 87.9031 346.8091 0001998 79.8993 280.2362 13.13471048235924
Epoch: Feb 3, 2026 • Age: 22 hours

Current Status

Altitude 1236.5 km
Velocity 7.24 km/s
Sub-Earth Point -67.42°S, 102.46°E
Launch Date Mar 25, 2021
Age 4.8 years
Type internet

Technical Details

Classification Payload
Mass 148.00 kg
Dry Mass 140.00 kg
Total Mass 148.00 kg
Length 1.30 m
Diameter 1.00 m
Span 5.00 m
Shape Trapezoid+2 pan
Manufacturer ONEWUS
Bus Type ARROW
Phase Status In Orbit
Owner/State ONEWEBN/UK

Large Constellations

Loading constellations...